Flag for Germany Weather past 2 weeks in Bochum, North Rhine-Westphalia, Germany

Now
41 °F

Passing clouds.


Feels Like: 35 °F
Forecast: 38 / 46 °F
Wind: 10 mph from West

Location: Dortmund / Wickede

Current Time: Apr 1, 2015 at 7:54:17 PM

Latest Report: Apr 1, 2015 at 7:20 PM


Visibility: N/A

Pressure: 30.01 "Hg

Humidity: 70%

Dew point: 32 °F

Location of BochumLocation

Historic Weather in Bochum — Graph

°F

Bochum temperature yesterday

Maximum temperature yesterday: 50 °F (at 5:20 AM)
Minimum temperature yesterday: 37 °F (at 10:20 PM)
Average temperature yesterday: 47 °F

Past Weeks' High & Low Weather Summary

 TemperatureHumidityPressure
High61 °F (Mar 18, 2:20 PM)93% (Mar 19, 5:20 AM)30.36 "Hg (Mar 19, 5:20 AM)
Low28 °F (Mar 23, 5:20 AM)43% (Mar 31, 5:50 PM)29.21 "Hg (Mar 29, 7:20 PM)
Average44 °F74%29.92 "Hg
* Reported Mar 17 5:20 PM — Apr 1 6:20 PM, Bochum, Weather by CustomWeather, © 2015

Note: Actual official high and low records may vary slightly from our data, if they occured in-between our weather recording intervals... More about our weather records

Advertising

Bochum weather history for previous 24 hours

 ConditionsComfort  
Time TempWeatherWind HumidityBarometerVisibility
6:20 PM
Wed, Apr 1
39 °FScattered clouds.13 mph81%30.01 "HgN/A
5:50 PM37 °FScattered showers. Scattered clouds.14 mph87%30.01 "HgN/A
5:20 PM37 °FSprinkles. Broken clouds.16 mph87%30.01 "Hg6 mi
4:50 PM39 °FScattered showers. Scattered clouds.18 mph81%30.01 "HgN/A
4:20 PM39 °FSprinkles. Broken clouds.23 mph75%30.01 "HgN/A
3:50 PM41 °FPartly sunny.20 mph76%30.01 "HgN/A
3:20 PM41 °FBroken clouds.17 mph81%30.01 "HgN/A
2:50 PM39 °FSprinkles. Partly sunny.20 mph81%30.01 "Hg6 mi
2:20 PM39 °FSprinkles. Partly sunny.20 mph81%30.01 "HgN/A
1:50 PM41 °FScattered showers. Partly sunny.21 mph76%30.01 "HgN/A
1:20 PM41 °FSprinkles. Partly sunny.16 mph70%29.98 "HgN/A
12:50 PM45 °FPartly sunny.15 mph57%29.98 "HgN/A
12:20 PM43 °FScattered clouds.15 mph66%29.98 "HgN/A
11:50 AM43 °FScattered clouds.14 mph71%29.98 "HgN/A
11:20 AM41 °FPartly sunny.15 mph70%29.98 "HgN/A
10:50 AM41 °FPartly sunny.14 mph70%29.98 "HgN/A
10:20 AM39 °FPartly sunny.10 mph75%29.98 "HgN/A
9:50 AM39 °FLight rain. Partly sunny.14 mph75%29.95 "HgN/A
9:20 AM39 °FPartly sunny.16 mph75%29.95 "HgN/A
8:50 AM37 °FPartly sunny.14 mph81%29.92 "HgN/A
8:20 AM37 °FSprinkles. Partly sunny.16 mph81%29.92 "HgN/A
7:50 AM37 °FScattered showers. Partly cloudy.18 mph81%29.89 "HgN/A
7:20 AM36 °FScattered showers. Passing clouds.15 mph87%29.86 "HgN/A
6:50 AM36 °FPassing clouds.14 mph87%29.86 "HgN/A
6:20 AM36 °FLight rain. Partly cloudy.16 mph87%29.86 "HgN/A
5:50 AM34 °FLight rain. Passing clouds.16 mph93%29.83 "HgN/A
5:20 AM37 °FLight rain. Fog.23 mph75%29.80 "Hg2 mi
10:50 PM
Tue, Mar 31
39 °FScattered showers. Clear.18 mph70%29.74 "HgN/A
10:20 PM37 °FSprinkles. Clear.16 mph81%29.74 "HgN/A
9:50 PM39 °FSprinkles. Partly cloudy.20 mph75%29.71 "HgN/A
9:20 PM43 °FScattered showers. Passing clouds.16 mph61%29.71 "HgN/A
8:50 PM43 °FSprinkles. Broken clouds.17 mph61%29.71 "HgN/A
8:20 PM45 °FScattered showers. Clear.20 mph57%29.68 "HgN/A
7:50 PM45 °FScattered showers. Scattered clouds.18 mph57%29.68 "HgN/A
7:20 PM45 °FSprinkles. Partly sunny.29 mph66%29.68 "HgN/A
Weather by CustomWeather, © 2015

See weather overviewHow to use our weather pages